When you browse on this site, cookies collect data to enhance your experience and personalize the content and advertising you see.
Visit our Privacy Policy to learn more. By continuing to use the site, you agree to this use of cookies and data.
  • In Czech Republic
  • List of Countries
  • For 7 days
  • Water Temperature
  • Satellite Maps
  • Weather Map
  • Weather Widgets
  • user-avatar
    Login

    Hourly Weather Siguiri

    Today, 16 December, Sunday

    Time Temperature Precipitation Wind Pressure Humidity
    00:00 +22°C° 0 mm 1 mps 717 mmHg 19%
    01:00 +19°C° 0 mm 0 mps 717 mmHg 20%
    02:00 +18°C° 0 mm 0 mps 717 mmHg 20%
    03:00 +20°C° 0 mm 1 mps 717 mmHg 21%
    04:00 +20°C° 0 mm 1 mps 717 mmHg 21%
    05:00 +20°C° 0 mm 1 mps 717 mmHg 22%
    06:00 +20°C° 0 mm 1 mps 717 mmHg 22%
    07:00 +21°C° 0 mm 1 mps 718 mmHg 21%
    08:00 +24°C° 0 mm 2 mps 718 mmHg 18%
    09:00 +27°C° 0 mm 3 mps 719 mmHg 15%
    10:00 +30°C° 0 mm 3 mps 719 mmHg 12%
    11:00 +33°C° 0 mm 4 mps 718 mmHg 11%
    12:00 +35°C° 0 mm 4 mps 718 mmHg 10%
    13:00 +35°C° 0 mm 5 mps 718 mmHg 10%
    14:00 +35°C° 0 mm 5 mps 718 mmHg 10%
    15:00 +35°C° 0 mm 5 mps 717 mmHg 10%
    16:00 +35°C° 0 mm 5 mps 717 mmHg 10%
    17:00 +33°C° 0 mm 4 mps 717 mmHg 12%
    18:00 +29°C° 0 mm 3 mps 717 mmHg 14%
    19:00 +26°C° 0 mm 3 mps 717 mmHg 15%
    20:00 +25°C° 0 mm 3 mps 718 mmHg 16%
    21:00 +24°C° 0 mm 3 mps 718 mmHg 17%
    22:00 +22°C° 0 mm 3 mps 719 mmHg 17%
    23:00 +23°C° 0 mm 2 mps 719 mmHg 18%

    Tomorrow, 17 December, Monday

    Time Temperature Precipitation Wind Pressure Humidity
    00:00 +21°C° 0 mm 2 mps 719 mmHg 18%
    01:00 +20°C° 0 mm 2 mps 719 mmHg 18%
    02:00 +20°C° 0 mm 2 mps 718 mmHg 19%
    03:00 +19°C° 0 mm 2 mps 718 mmHg 19%
    04:00 +18°C° 0 mm 2 mps 718 mmHg 20%
    05:00 +18°C° 0 mm 2 mps 718 mmHg 20%
    06:00 +17°C° 0 mm 2 mps 718 mmHg 20%
    07:00 +17°C° 0 mm 2 mps 718 mmHg 21%
    08:00 +19°C° 0 mm 3 mps 719 mmHg 18%
    09:00 +22°C° 0 mm 4 mps 719 mmHg 15%
    10:00 +26°C° 0 mm 4 mps 720 mmHg 12%
    11:00 +28°C° 0 mm 5 mps 719 mmHg 11%
    12:00 +30°C° 0 mm 5 mps 719 mmHg 10%
    13:00 +33°C° 0 mm 5 mps 718 mmHg 9%
    14:00 +33°C° 0 mm 5 mps 718 mmHg 9%
    15:00 +34°C° 0 mm 5 mps 717 mmHg 9%
    16:00 +34°C° 0 mm 5 mps 717 mmHg 10%
    17:00 +30°C° 0 mm 4 mps 717 mmHg 12%
    18:00 +28°C° 0 mm 3 mps 717 mmHg 14%
    19:00 +25°C° 0 mm 3 mps 717 mmHg 16%
    20:00 +24°C° 0 mm 3 mps 718 mmHg 16%
    21:00 +22°C° 0 mm 3 mps 718 mmHg 17%
    22:00 +21°C° 0 mm 3 mps 719 mmHg 18%
    23:00 +21°C° 0 mm 3 mps 718 mmHg 19%

    Day after tomorrow, 18 December, Tuesday

    Time Temperature Precipitation Wind Pressure Humidity
    00:00 +20°C° 0 mm 2 mps 718 mmHg 19%
    01:00 +19°C° 0 mm 2 mps 718 mmHg 20%
    02:00 +18°C° 0 mm 2 mps 718 mmHg 21%
    03:00 +18°C° 0 mm 2 mps 718 mmHg 21%
    04:00 +17°C° 0 mm 2 mps 717 mmHg 21%
    05:00 +17°C° 0 mm 2 mps 717 mmHg 22%
    06:00 +16°C° 0 mm 2 mps 718 mmHg 22%
    07:00 +16°C° 0 mm 2 mps 718 mmHg 22%
    08:00 +19°C° 0 mm 3 mps 718 mmHg 20%
    09:00 +22°C° 0 mm 3 mps 719 mmHg 18%
    10:00 +26°C° 0 mm 4 mps 720 mmHg 16%
    11:00 +28°C° 0 mm 4 mps 719 mmHg 15%
    12:00 +30°C° 0 mm 4 mps 718 mmHg 13%
    13:00 +33°C° 0 mm 4 mps 717 mmHg 12%
    14:00 +33°C° 0 mm 4 mps 717 mmHg 12%
    15:00 +34°C° 0 mm 4 mps 716 mmHg 12%
    16:00 +34°C° 0 mm 4 mps 716 mmHg 12%
    17:00 +32°C° 0 mm 4 mps 716 mmHg 15%
    18:00 +28°C° 0 mm 3 mps 716 mmHg 17%
    19:00 +26°C° 0 mm 3 mps 716 mmHg 19%
    20:00 +25°C° 0 mm 3 mps 717 mmHg 20%
    21:00 +24°C° 0 mm 3 mps 718 mmHg 22%
    22:00 +22°C° 0 mm 3 mps 718 mmHg 23%
    23:00 +21°C° 0 mm 3 mps 718 mmHg 25%

    19 December, Wednesday

    Time Temperature Precipitation Wind Pressure Humidity
    00:00 +20°C° 0 mm 2 mps 718 mmHg 27%
    01:00 +19°C° 0 mm 2 mps 718 mmHg 29%
    02:00 +18°C° 0 mm 2 mps 717 mmHg 29%
    03:00 +18°C° 0 mm 2 mps 717 mmHg 30%
    04:00 +17°C° 0 mm 2 mps 717 mmHg 31%
    05:00 +17°C° 0 mm 2 mps 717 mmHg 31%
    06:00 +16°C° 0 mm 2 mps 717 mmHg 30%
    07:00 +16°C° 0 mm 2 mps 718 mmHg 29%
    08:00 +19°C° 0 mm 2 mps 718 mmHg 25%
    09:00 +22°C° 0 mm 3 mps 719 mmHg 20%
    10:00 +25°C° 0 mm 4 mps 720 mmHg 15%
    11:00 +27°C° 0 mm 4 mps 719 mmHg 14%
    12:00 +29°C° 0 mm 4 mps 718 mmHg 13%
    13:00 +32°C° 0 mm 4 mps 718 mmHg 12%
    14:00 +33°C° 0 mm 4 mps 717 mmHg 12%
    15:00 +33°C° 0 mm 3 mps 716 mmHg 12%
    16:00 +34°C° 0 mm 3 mps 716 mmHg 12%
    17:00 +30°C° 0 mm 3 mps 716 mmHg 14%
    18:00 +28°C° 0 mm 3 mps 716 mmHg 16%
    19:00 +25°C° 0 mm 2 mps 716 mmHg 18%
    20:00 +24°C° 0 mm 2 mps 717 mmHg 19%
    21:00 +23°C° 0 mm 2 mps 717 mmHg 19%
    22:00 +21°C° 0 mm 2 mps 718 mmHg 20%
    23:00 +20°C° 0 mm 2 mps 718 mmHg 21%

    20 December, Thursday

    Time Temperature Precipitation Wind Pressure Humidity
    00:00 +20°C° 0 mm 2 mps 717 mmHg 23%
    01:00 +19°C° 0 mm 2 mps 717 mmHg 24%
    02:00 +18°C° 0 mm 2 mps 717 mmHg 26%
    03:00 +17°C° 0 mm 2 mps 717 mmHg 28%
    04:00 +18°C° 0 mm 1 mps 716 mmHg 30%
    05:00 +16°C° 0 mm 1 mps 717 mmHg 31%
    06:00 +16°C° 0 mm 1 mps 717 mmHg 31%
    07:00 +16°C° 0 mm 1 mps 717 mmHg 31%
    08:00 +19°C° 0 mm 2 mps 718 mmHg 27%
    09:00 +22°C° 0 mm 3 mps 719 mmHg 22%
    10:00 +26°C° 0 mm 4 mps 719 mmHg 17%
    11:00 +28°C° 0 mm 4 mps 718 mmHg 16%
    12:00 +30°C° 0 mm 3 mps 718 mmHg 14%
    13:00 +33°C° 0 mm 3 mps 717 mmHg 13%
    14:00 +33°C° 0 mm 3 mps 717 mmHg 12%
    15:00 +33°C° 0 mm 3 mps 716 mmHg 12%
    16:00 +34°C° 0 mm 3 mps 715 mmHg 12%
    17:00 +30°C° 0 mm 3 mps 716 mmHg 15%
    18:00 +28°C° 0 mm 3 mps 716 mmHg 17%
    19:00 +25°C° 0 mm 3 mps 716 mmHg 20%
    20:00 +25°C° 0 mm 2 mps 717 mmHg 21%
    21:00 +24°C° 0 mm 2 mps 717 mmHg 22%
    22:00 +23°C° 0 mm 2 mps 718 mmHg 23%
    23:00 +21°C° 0 mm 2 mps 717 mmHg 25%

    21 December, Friday

    Time Temperature Precipitation Wind Pressure Humidity
    00:00 +20°C° 0 mm 2 mps 717 mmHg 26%
    01:00 +19°C° 0 mm 2 mps 717 mmHg 28%
    02:00 +19°C° 0 mm 2 mps 717 mmHg 30%
    03:00 +18°C° 0 mm 2 mps 716 mmHg 32%
    04:00 +17°C° 0 mm 2 mps 716 mmHg 33%
    05:00 +17°C° 0 mm 2 mps 717 mmHg 33%
    06:00 +17°C° 0 mm 2 mps 717 mmHg 33%
    07:00 +16°C° 0 mm 2 mps 717 mmHg 33%
    08:00 +19°C° 0 mm 2 mps 718 mmHg 29%
    09:00 +22°C° 0 mm 3 mps 718 mmHg 24%
    10:00 +26°C° 0 mm 4 mps 719 mmHg 19%
    11:00 +28°C° 0 mm 4 mps 718 mmHg 17%
    12:00 +29°C° 0 mm 4 mps 718 mmHg 16%
    13:00 +32°C° 0 mm 4 mps 717 mmHg 14%
    14:00 +33°C° 0 mm 4 mps 716 mmHg 13%
    15:00 +33°C° 0 mm 3 mps 716 mmHg 13%
    16:00 +33°C° 0 mm 3 mps 715 mmHg 13%
    17:00 +30°C° 0 mm 3 mps 716 mmHg 15%
    18:00 +28°C° 0 mm 3 mps 716 mmHg 18%
    19:00 +25°C° 0 mm 3 mps 716 mmHg 20%
    20:00 +24°C° 0 mm 3 mps 716 mmHg 22%
    21:00 +22°C° 0 mm 3 mps 717 mmHg 23%
    22:00 +21°C° 0 mm 3 mps 717 mmHg 24%
    23:00 +20°C° 0 mm 3 mps 717 mmHg 26%
    Show more